This is the latest recevied weather packets stored in our database for station/object EUGENE. If no packets are shown the sender has not sent any weather packets the latest 10 day(s).
| Time | Temp. | Humidity | Pressure | Rain* | Wind** | Luminosity | Snow |
|---|---|---|---|---|---|---|---|
| 1777762627 | 19.44° C | 70% | 1012.4 hPa | 0 mm | - | - | - |
| 1777761727 | 19.44° C | 68% | 1012.6 hPa | 0 mm | - | - | - |
| 1777760826 | 18.89° C | 70% | 1012.8 hPa | 0 mm | - | - | - |
| 1777759927 | 18.89° C | 72% | 1013 hPa | 0 mm | - | - | - |
| 1777759027 | 17.78° C | 76% | 1013.3 hPa | 0 mm | - | - | - |
| 1777758127 | 17.78° C | 72% | 1013.7 hPa | 0 mm | - | - | - |
| 1777757227 | 18.33° C | 75% | 1013.8 hPa | 0 mm | - | - | - |
| 1777756326 | 16.67° C | 73% | 1014.2 hPa | 0 mm | - | - | - |
| 1777755427 | 16.11° C | 74% | 1014.1 hPa | 0 mm | - | - | - |
| 1777754527 | 16.11° C | 75% | 1014.3 hPa | 0 mm | - | - | - |
| 1777753627 | 15.56° C | 77% | 1014.3 hPa | 0 mm | - | - | - |
| 1777752726 | 15.56° C | 78% | 1014.5 hPa | 0 mm | - | - | - |
| 1777751828 | 15° C | 78% | 1014.8 hPa | 0 mm | - | - | - |
| 1777750926 | 15° C | 78% | 1015 hPa | 0 mm | - | - | - |
| 1777750026 | 14.44° C | 80% | 1015 hPa | 0 mm | - | - | - |
| 1777749127 | 14.44° C | 80% | 1015.1 hPa | 0 mm | - | - | - |
| 1777748227 | 13.89° C | 80% | 1015.1 hPa | 0 mm | - | - | - |
| 1777747327 | 13.89° C | 81% | 1015.4 hPa | 0 mm | - | - | - |
| 1777746426 | 13.33° C | 81% | 1015.5 hPa | 0 mm | - | - | - |
| 1777745527 | 13.33° C | 82% | 1015.5 hPa | 0 mm | - | - | - |
| 1777744627 | 12.78° C | 83% | 1015.5 hPa | 0 mm | - | - | - |
| 1777743726 | 12.22° C | 84% | 1015.6 hPa | 0 mm | - | - | - |
| 1777742827 | 12.22° C | 83% | 1015.6 hPa | 0 mm | - | - | - |
| 1777741926 | 13.33° C | 81% | 1015.7 hPa | 0 mm | - | - | - |
| 1777741027 | 13.33° C | 80% | 1015.7 hPa | 0 mm | - | - | - |
* Rain latest hour (hover to see other rain measurements)
** Current wind speed in m/s (hover to see current wind gust speed)